Date String (YYYY-MM-DD hh:mm:ss) UTC,Instrument flags,Ambient pressure (hPa),Sample flow (lpm),Bypass flow (lpm),Sample temperature (°C),Ambient temperature (°C),ASC tube jacket temperature (°C),LED temperature (°C),Box temperature (°C),Sample RH (%),Span deviation,Mass concentration (μg/m³),Mass concentration (μg/m³),Mass concentration (μg/m³)
DateTimeUTC,F1_M11,P_M11,Q1_M11,Q2_M11,T1_M11,T2_M11,T3_M11,T4_M11,T5_M11,U1_M11,ZSPAN_M11,X0_M11,X2_M11,X1_M11
2023-01-22 06:00:00,,0822.0,4.99,0.00,22.1,20.6,00.0,30.9,23.8,09.3,0000.0,0008.17,0004.70,0004.44
2023-01-22 06:01:00,,0822.1,5.00,0.00,22.1,21.4,00.0,30.8,23.9,09.3,0000.0,0008.12,0004.55,0004.30
2023-01-22 06:02:00,,0821.9,5.00,0.00,22.2,22.4,00.0,30.9,24.2,09.4,0000.0,0007.77,0004.42,0004.20
2023-01-22 06:03:00,,0822.2,5.00,0.00,22.3,23.1,00.0,30.9,24.4,09.3,0000.0,0007.74,0004.40,0004.18
2023-01-22 06:04:00,,0821.8,5.00,0.00,22.4,22.8,00.0,31.0,24.4,09.3,0000.0,0007.78,0004.40,0004.16
2023-01-22 06:05:00,,0821.8,5.00,0.00,22.5,22.3,00.0,31.0,24.4,09.3,0000.0,0007.82,0004.40,0004.14
2023-01-22 06:06:00,,0821.8,5.04,0.00,22.5,21.9,00.0,31.0,24.3,09.4,0000.0,0007.66,0004.29,0004.05
2023-01-22 06:07:00,,0821.7,5.00,0.00,22.5,21.6,00.0,31.0,24.2,09.5,0000.0,0007.58,0004.23,0003.99
2023-01-22 06:08:00,,0821.8,4.99,0.00,22.5,21.4,00.0,31.1,24.2,09.6,0000.0,0007.54,0004.23,0004.00
2023-01-22 06:09:00,,0821.8,5.00,0.00,22.4,21.3,00.0,31.1,24.2,09.6,0000.0,0007.64,0004.30,0004.06
2023-01-22 06:10:00,,0821.9,5.01,0.00,22.4,21.2,00.0,31.1,24.2,09.7,0000.0,0007.37,0004.40,0004.16
2023-01-22 06:11:00,,0821.8,5.01,0.00,22.4,21.1,00.0,31.1,24.2,09.7,0000.0,0007.11,0004.51,0004.26
2023-01-22 06:12:00,,0821.8,5.00,0.00,22.4,21.0,00.0,31.1,24.2,09.6,0000.0,0007.02,0004.61,0004.35
2023-01-22 06:13:00,,0821.8,5.00,0.00,22.4,21.0,00.0,31.1,24.1,09.7,0000.0,0007.77,0004.69,0004.43
2023-01-22 06:14:00,,0821.7,4.99,0.00,22.4,20.9,00.0,31.1,24.1,09.7,0000.0,0008.00,0004.76,0004.49
2023-01-22 06:15:00,,0821.7,5.01,0.00,22.4,20.9,00.0,31.1,24.1,09.6,0000.0,0008.06,0004.82,0004.54
2023-01-22 06:16:00,,0821.7,5.00,0.00,22.4,20.9,00.0,31.1,24.1,09.6,0000.0,0008.07,0004.83,0004.58
2023-01-22 06:17:00,,0821.7,5.00,0.00,22.4,20.9,00.0,31.1,24.1,09.7,0000.0,0008.23,0004.88,0004.61
2023-01-22 06:18:00,,0821.6,5.00,0.00,22.3,20.9,00.0,31.1,24.1,09.7,0000.0,0008.26,0004.89,0004.62
2023-01-22 06:19:00,,0821.7,5.00,0.00,22.3,20.9,00.0,31.1,24.0,09.6,0000.0,0008.39,0004.90,0004.62
2023-01-22 06:20:00,,0821.6,5.00,0.00,22.3,20.9,00.0,31.1,24.0,09.4,0000.0,0008.42,0004.88,0004.59
2023-01-22 06:21:00,,0821.6,5.00,0.00,22.3,20.9,00.0,31.1,24.0,09.4,0000.0,0008.41,0004.86,0004.56
2023-01-22 06:22:00,,0821.6,5.00,0.00,22.3,20.9,00.0,31.1,24.0,09.5,0000.0,0008.38,0004.82,0004.53
2023-01-22 06:23:00,,0821.6,5.01,0.00,22.3,20.8,00.0,31.1,24.0,09.3,0000.0,0008.26,0004.77,0004.48
2023-01-22 06:24:00,,0821.6,5.00,0.00,22.3,20.8,00.0,31.1,24.0,09.2,0000.0,0007.80,0004.70,0004.42
2023-01-22 06:25:00,,0821.5,5.00,0.00,22.3,20.8,00.0,31.1,24.0,09.2,0000.0,0007.57,0004.62,0004.33
2023-01-22 06:26:00,,0821.6,5.00,0.00,22.3,20.8,00.0,31.1,24.0,09.3,0000.0,0007.43,0004.52,0004.25
2023-01-22 06:27:00,,0821.6,5.00,0.00,22.3,20.8,00.0,31.1,24.0,09.2,0000.0,0007.29,0004.45,0004.18
2023-01-22 06:28:00,,0821.6,5.00,0.00,22.3,21.2,00.0,31.1,24.1,09.2,0000.0,0007.01,0004.35,0004.10
2023-01-22 06:29:00,,0821.6,5.00,0.00,22.4,22.2,00.0,31.0,24.3,09.3,0000.0,0006.82,0004.28,0004.02
2023-01-22 06:30:00,,0821.7,5.00,0.00,22.5,23.0,00.0,31.1,24.5,09.2,0000.0,0006.56,0004.22,0003.95
2023-01-22 06:31:00,,0821.7,4.98,0.00,22.6,22.8,00.0,31.1,24.6,09.1,0000.0,0006.38,0004.19,0003.91
2023-01-22 06:32:00,,0821.6,4.99,0.00,22.6,22.4,00.0,31.2,24.5,09.2,0000.0,0006.37,0004.15,0003.87
2023-01-22 06:33:00,,0821.7,4.99,0.00,22.6,22.1,00.0,31.2,24.4,09.2,0000.0,0006.32,0004.12,0003.83
2023-01-22 06:34:00,,0821.6,4.99,0.00,22.6,21.8,00.0,31.2,24.4,09.0,0000.0,0006.29,0004.09,0003.78
2023-01-22 06:35:00,,0821.7,5.00,0.00,22.6,21.6,00.0,31.2,24.4,09.0,0000.0,0006.20,0004.07,0003.76
2023-01-22 06:36:00,,0821.7,5.02,0.00,22.6,21.4,00.0,31.2,24.3,09.2,0000.0,0006.09,0004.07,0003.76
2023-01-22 06:37:00,,0821.7,4.99,0.00,22.6,21.3,00.0,31.2,24.3,09.3,0000.0,0006.03,0004.06,0003.77
2023-01-22 06:38:00,,0821.7,5.01,0.00,22.6,21.2,00.0,31.2,24.3,09.2,0000.0,0005.96,0004.05,0003.78
2023-01-22 06:39:00,,0821.7,4.99,0.00,22.6,21.2,00.0,31.3,24.3,09.2,0000.0,0005.90,0004.06,0003.78
2023-01-22 06:40:00,,0821.7,5.00,0.00,22.5,21.1,00.0,31.3,24.3,09.2,0000.0,0005.87,0004.05,0003.78
2023-01-22 06:41:00,,0821.7,4.99,0.00,22.5,21.1,00.0,31.3,24.2,09.1,0000.0,0005.90,0004.04,0003.76
2023-01-22 06:42:00,,0821.7,5.01,0.00,22.5,21.1,00.0,31.3,24.2,09.2,0000.0,0005.93,0004.02,0003.75
2023-01-22 06:43:00,,0821.7,5.00,0.00,22.5,21.1,00.0,31.3,24.2,09.2,0000.0,0005.79,0004.01,0003.74
2023-01-22 06:44:00,,0821.7,4.99,0.00,22.5,21.1,00.0,31.3,24.2,09.2,0000.0,0005.70,0003.98,0003.72
2023-01-22 06:45:00,,0821.7,5.01,0.00,22.5,21.1,00.0,31.3,24.2,09.2,0000.0,0005.72,0003.98,0003.73
2023-01-22 06:46:00,,0821.8,5.00,0.00,22.4,21.0,00.0,31.2,24.2,09.3,0000.0,0005.77,0004.01,0003.75
2023-01-22 06:47:00,,0821.7,5.00,0.00,22.4,21.0,00.0,31.2,24.1,09.3,0000.0,0005.78,0004.02,0003.74
2023-01-22 06:48:00,,0821.7,5.01,0.00,22.4,21.0,00.0,31.2,24.1,09.3,0000.0,0005.89,0004.04,0003.75
2023-01-22 06:49:00,,0821.7,5.00,0.00,22.4,21.0,00.0,31.2,24.1,09.3,0000.0,0006.00,0004.06,0003.75
2023-01-22 06:50:00,,0821.7,5.00,0.00,22.4,21.0,00.0,31.2,24.1,09.3,0000.0,0006.07,0004.08,0003.77
2023-01-22 06:51:00,,0821.7,4.99,0.00,22.4,21.0,00.0,31.2,24.1,09.3,0000.0,0006.03,0004.08,0003.78
2023-01-22 06:52:00,,0821.7,5.01,0.00,22.4,21.0,00.0,31.2,24.1,09.3,0000.0,0005.89,0004.08,0003.81
2023-01-22 06:53:00,,0821.7,5.01,0.00,22.4,21.0,00.0,31.2,24.1,09.3,0000.0,0005.88,0004.09,0003.82
2023-01-22 06:54:00,,0821.7,5.00,0.00,22.4,20.9,00.0,31.2,24.1,09.2,0000.0,0005.87,0004.07,0003.83
2023-01-22 06:55:00,,0821.7,5.01,0.00,22.4,20.9,00.0,31.2,24.1,09.2,0000.0,0005.94,0004.08,0003.82
2023-01-22 06:56:00,,0821.7,5.01,0.00,22.4,20.9,00.0,31.2,24.1,09.2,0000.0,0005.86,0004.07,0003.83
2023-01-22 06:57:00,,0821.6,5.00,0.00,22.4,20.9,00.0,31.2,24.1,09.3,0000.0,0005.76,0004.04,0003.82
2023-01-22 06:58:00,,0821.7,4.99,0.00,22.3,20.9,00.0,31.2,24.1,09.3,0000.0,0005.73,0004.02,0003.83
2023-01-22 06:59:00,,0821.7,5.01,0.00,22.4,21.4,00.0,31.2,24.2,09.3,0000.0,0005.84,0004.00,0003.81
